STARLINK-1035 (44740 NORAD) Tracking and Keplerian Element Data

This shows tracking and keplerian element data for the satellite.

Feedback or suggestion? Click here.




ElementValue
Catalog44740
NameSTARLINK-1035
Epoch Orbit161
Epoch Day93.91667824
Epoch Year2020
RAAN213.6336
Inclination53.0022
Eccentricity0.000112
Argument of Perigee104.4924
Mean Anonmoly115.8659
Mean Motion15.0559254
Decay Rate-0.00016799
L11 44740U 19074AD 20093.91667824 -.00016799 00000-0 -11361-2 0 9995
L22 44740 53.0022 213.6336 0001120 104.4924 115.8659 15.05592540 1614

Live tracking and technical data element details for STARLINK-1035 (NORAD 44740). STARLINK-1035 can be tracked NOW for your location showing map with azimuth and elevation plus other details from your city location.

Track the satellite on the map from your city or location and see movement details for azimuth, elevation, latitude, longitude, range, height, and movement on the map or in text.







IsCatalogInMostPopularTable: catalog: 44740, numindb: 39
Update: records affected: 1



GetName: 44740 STARLINK-1035

Hit Count: updated at: Sun, 05 Apr 2020 18:40:28 GMT